sat.trackr.live / text

‹ back to catalog

STARLINK-1262

NORAD 45366 · 2020-019G

PAYLOAD ACTIVE UNKNOWN

§ Identity

Operator
Country
US
Launch date
2020-03-18
Launch site
AFETR
Launch vehicle
Mass (kg)
RCS (m²)

Purposes: comms

External: N2YO · Heavens-Above · Gunter

§ Orbital elements

Epoch: 2026-09-19T21:54:13.707360Z

Period
93.34 min
Inclination
53.1510°
Eccentricity
0.0002519
Mean motion
15.42693664 rev/d
Perigee alt
436.4 km
Apogee alt
439.9 km
Semi-major
6,816.3 km
B*
9.0436e-4
RAAN
336.4048°
Arg perigee
35.8702°
Mean anomaly
324.2473°
Rev number
35,958

§ Raw data

STARLINK-12621 45366U 20019G   26262.91265865  .00039861  00000+0  90436-3 0  99972 45366  53.1510 336.4048 0002519  35.8702 324.2473 15.42693664359582

JSON: /api/v1/satellites/45366 · /tle

For live sub-satellite position, see the globe view (requires WebGL).

§ Visibility from observer

Set your observer location to see the next 7 days of passes ≥ 10°. The values pass through the URL so the page stays shareable.

No JS? Fill the form by hand. The geolocation button needs JavaScript.